Location: Acheville
(50.3840°N, 2.8827°E)
Time: 09:42:02
(UTC+00:00)

Cosmos 2219 Rocket - Pass Details

Date: 24 October 2021
Orbit: 827 x 848 km, 71.0° (Epoch: 30 November)

Event Time Altitude Azimuth Distance (km) Brightness Sun altitude
Rises 18:11:58 0° 159° (SSE) 3,355 5.1 -15.5°
Reaches altitude 10° 18:15:05 10° 142° (SE) 2,429 4.2 -16.0°
Enters shadow 18:15:24 11° 139° (SE) 2,349 4.1 -16.0°
